Weather History for KRXE - August, 2013

Change the Weather History Date:

Wednesday, August 21, 2013

  Actual Average Record
Temperature  
Mean Temperature 68 °F 66 °F  
Max Temperature 82 °F 83 °F 94 °F (2009)
Min Temperature 54 °F 48 °F 41 °F (2000)
Degree Days  
Heating Degree Days 0 2  
Month to date heating degree days 0 15  
Since 1 June heating degree days 117 217  
Since 1 July heating degree days 0 45  
Cooling Degree Days 3 2  
Month to date cooling degree days 113 72  
Year to date cooling degree days 367 186  
Since 1 June cooling degree days 365 182  
Growing Degree Days 18 (Base 50)    
Moisture  
Dew Point 48 °F    
Average Humidity 53    
Maximum Humidity 72    
Minimum Humidity 33    
Precipitation  
Precipitation T in 0.03 in 0.44 in (2014)
Month to date precipitation T 0.59  
Year to date precipitation 5.12 8.55  
Sea Level Pressure  
Sea Level Pressure 29.99 in    
Wind  
Wind Speed 7 mph (SSW)    
Max Wind Speed 16 mph    
Max Gust Speed 23 mph    
Visibility 10 miles    
Events      
T = Trace of Precipitation, MM = Missing Value Source: NWS Daily Summary

Daily Weather History Graph

Daily Weather History Graph

Search for Another Location

Airport or City:

Trip Planner

Search our weather history database for the weather conditions in past years. The results will help you decide how hot, cold, wet, or windy it might be!

Date:

Astronomy

Aug. 21, 2013 Rise Set
Actual Time 6:38 AM MDT 8:21 PM MDT
Civil Twilight 6:08 AM MDT 8:51 PM MDT
Nautical Twilight 5:30 AM MDT 9:28 PM MDT
Astronomical Twilight 4:50 AM MDT 10:08 PM MDT
Moon 8:27 PM MDT (8/21) 7:26 AM MDT (8/21)
Length of Visible Light 14h 43m
Length of Day
13h 42m
Full, 99% of the Moon is Illuminated
Aug 21
Full
Aug 28
Last Quarter
Sep 5
New
Sep 12
First Quarter
Sep 19
Full

Hourly Weather History & Observations

Time (MDT) Temp. Dew Point Humidity Pressure Visibility Wind Dir Wind Speed Gust Speed Precip Events Conditions
12:53 AM 71.1 °F 46.0 °F 41% 29.92 in 10.0 mi South 9.2 mph - N/A   Clear
1:53 AM 70.0 °F 46.0 °F 42% 29.92 in 10.0 mi South 10.4 mph - N/A   Clear
2:53 AM 66.0 °F 46.0 °F 48% 29.93 in 10.0 mi South 6.9 mph - N/A   Clear
3:53 AM 66.9 °F 45.0 °F 45% 29.94 in 10.0 mi South 11.5 mph - N/A   Clear
4:53 AM 68.0 °F 45.0 °F 43% 29.93 in 10.0 mi South 8.1 mph - N/A   Clear
5:53 AM 68.0 °F 45.0 °F 43% 29.94 in 10.0 mi South 8.1 mph - N/A   Clear
6:53 AM 55.9 °F 46.0 °F 69% 29.99 in 10.0 mi North 5.8 mph - N/A   Clear
7:53 AM 55.9 °F 46.0 °F 69% 30.03 in 10.0 mi North 4.6 mph - N/A   Clear
8:53 AM 62.1 °F 48.9 °F 62% 30.04 in 10.0 mi NNE 4.6 mph - N/A   Partly Cloudy
9:53 AM 70.0 °F 48.9 °F 47% 30.04 in 10.0 mi SW 4.6 mph - N/A   Clear
10:53 AM 77.0 °F 50.0 °F 39% 30.02 in 10.0 mi SW 11.5 mph - N/A   Clear
11:53 AM 78.1 °F 50.0 °F 37% 30.02 in 10.0 mi SSW 10.4 mph - N/A   Clear
12:53 PM 79.0 °F 48.0 °F 34% 30.02 in 10.0 mi SSW 12.7 mph - N/A   Clear
1:53 PM 78.1 °F 50.0 °F 37% 30.02 in 10.0 mi SW 8.1 mph - N/A   Overcast
2:53 PM 81.0 °F 50.0 °F 34% 29.99 in 10.0 mi South 9.2 mph - 0.00 in   Clear
3:53 PM 80.1 °F 48.9 °F 34% 29.98 in 10.0 mi SW 3.5 mph - N/A   Mostly Cloudy
4:53 PM 81.0 °F 48.0 °F 31% 29.96 in 10.0 mi West 4.6 mph - N/A   Clear
5:53 PM 80.1 °F 48.0 °F 32% 29.96 in 10.0 mi SW 5.8 mph - N/A   Clear
6:53 PM 75.9 °F 52.0 °F 43% 30.00 in 10.0 mi SSW 5.8 mph - N/A   Partly Cloudy
7:53 PM 73.9 °F 52.0 °F 46% 30.01 in 10.0 mi SE 5.8 mph - N/A   Overcast
8:53 PM 73.0 °F 52.0 °F 48% 30.01 in 10.0 mi Calm Calm - N/A   Mostly Cloudy
9:53 PM 70.0 °F 50.0 °F 49% 30.03 in 10.0 mi NE 16.1 mph 21.9 mph N/A   Clear
10:53 PM 68.0 °F 50.0 °F 52% 30.03 in 10.0 mi NE 9.2 mph - N/A   Clear
11:53 PM 66.0 °F 51.1 °F 59% 30.03 in 10.0 mi ENE 9.2 mph - N/A   Clear